Location: Bermeries
(50.2863°N, 3.7551°E)
Time: 10:48:29
(UTC+00:00)

Cosmos 1190 Rocket - Pass Details

Date: 23 May 2024
Orbit: 754 x 778 km, 74.1° (Epoch: 14 June)

Event Time Altitude Azimuth Distance (km) Brightness Sun altitude
Exits shadow 00:51:12 30° 210° (SSW) 1,361 4.7 -17.4°
Maximum altitude 00:53:53 81° 295° (WNW) 791 4.0 -17.3°
Drops below altitude 10° 00:59:13 10° 23° (NNE) 2,339 7.8 -17.0°
Sets 01:01:37 0° 24° (NNE) 3,272 9.1 -16.9°
